Weather History for Anchorage Merrill, AK

Change the Weather History Date:

Wednesday, January 2, 2013

  Actual Average Record
Temperature  
Mean Temperature 34 °F -  
Max Temperature 41 °F 18 °F 48 °F (2011)
Min Temperature 28 °F 6 °F -18 °F (2009)
Degree Days  
Heating Degree Days 30    
Moisture  
Dew Point 27 °F    
Average Humidity 75    
Maximum Humidity 92    
Minimum Humidity 47    
Precipitation  
Precipitation 0.00 in - - ()
Sea Level Pressure  
Sea Level Pressure 29.44 in    
Wind  
Wind Speed 4 mph (NW)    
Max Wind Speed 10 mph    
Max Gust Speed -    
Visibility 10 miles    
Events      
Averages and records for this station are not official NWS values.
T = Trace of Precipitation, MM = Missing Value Source: NWS Daily Summary

Daily Weather History Graph

Daily Weather History Graph

Search for Another Location

Airport:

Trip Planner

Search our weather history database for the weather conditions in past years. The results will help you decide how hot, cold, wet, or windy it might be!

Date:

Astronomy

Jan. 02, 2013 Rise Set
Actual Time 10:12 AM AKST 3:55 PM AKST
Civil Twilight 9:12 AM AKST 4:55 PM AKST
Nautical Twilight 8:13 AM AKST 5:54 PM AKST
Astronomical Twilight 7:19 AM AKST 6:47 PM AKST
Moon 11:32 PM AKST (1/2) 11:14 AM AKST (1/2)
Length of Visible Light 7h 43m
Length of Day
5h 42m
Waning Gibbous, 74% of the Moon is Illuminated
Jan 2
Waning Gibbous
Jan 4
Last Quarter
Jan 11
New
Jan 18
First Quarter
Jan 26
Full

Hourly Weather History & Observations

Time (AKST) Temp. Windchill Dew Point Humidity Pressure Visibility Wind Dir Wind Speed Gust Speed Precip Events Conditions
12:53 AM 37.0 °F 32.4 °F 26.1 °F 65% 29.27 in 10.0 mi NNW 5.8 mph - N/A   Overcast
1:53 AM 36.0 °F - 25.0 °F 64% 29.30 in 10.0 mi Calm Calm - N/A   Overcast
3:53 AM 37.0 °F 33.3 °F 27.0 °F 67% 29.34 in 10.0 mi NW 4.6 mph - N/A   Overcast
4:53 AM 36.0 °F 32.1 °F 27.0 °F 70% 29.35 in 10.0 mi NW 4.6 mph - N/A   Overcast
5:53 AM 37.0 °F 33.3 °F 26.1 °F 65% 29.38 in 10.0 mi NNE 4.6 mph - N/A   Overcast
6:53 AM 34.0 °F 28.8 °F 26.1 °F 73% 29.38 in 10.0 mi West 5.8 mph - N/A   Mostly Cloudy
7:53 AM 41.0 °F 36.4 °F 21.9 °F 47% 29.39 in 10.0 mi South 6.9 mph - N/A   Scattered Clouds
8:53 AM 37.0 °F 31.0 °F 26.1 °F 65% 29.40 in 10.0 mi NW 8.1 mph - N/A   Mostly Cloudy
9:53 AM 37.0 °F 33.3 °F 26.1 °F 65% 29.42 in 10.0 mi North 4.6 mph - N/A   Mostly Cloudy
10:53 AM 37.0 °F - 26.1 °F 65% 29.45 in 10.0 mi Calm Calm - N/A   Overcast
11:53 AM 37.0 °F 33.3 °F 26.1 °F 65% 29.47 in 10.0 mi North 4.6 mph - N/A   Overcast
12:53 PM 35.1 °F 32.2 °F 27.0 °F 72% 29.47 in 10.0 mi NNW 3.5 mph - N/A   Mostly Cloudy
1:53 PM 35.1 °F 32.2 °F 27.0 °F 72% 29.47 in 10.0 mi NNE 3.5 mph - N/A   Mostly Cloudy
2:53 PM 36.0 °F 31.1 °F 28.0 °F 73% 29.48 in 10.0 mi WNW 5.8 mph - N/A   Mostly Cloudy
3:53 PM 34.0 °F 28.0 °F 28.9 °F 82% 29.48 in 10.0 mi WNW 6.9 mph - N/A   Overcast
4:53 PM 34.0 °F 31.0 °F 30.0 °F 85% 29.49 in 10.0 mi NW 3.5 mph - N/A   Mostly Cloudy
5:53 PM 33.1 °F - 30.0 °F 89% 29.50 in 10.0 mi Calm Calm - N/A   Partly Cloudy
6:53 PM 32.0 °F 28.7 °F 28.9 °F 88% 29.50 in 10.0 mi WNW 3.5 mph - N/A   Clear
7:53 PM 28.9 °F 25.2 °F 26.1 °F 89% 29.51 in 10.0 mi WNW 3.5 mph - N/A   Partly Cloudy
8:53 PM 28.0 °F - 26.1 °F 92% 29.52 in 10.0 mi Calm Calm - N/A   Mostly Cloudy
9:53 PM 30.9 °F 27.5 °F 27.0 °F 85% 29.54 in 10.0 mi WNW 3.5 mph - N/A   Scattered Clouds
10:53 PM 30.9 °F - 28.0 °F 89% 29.54 in 10.0 mi Calm Calm - N/A   Overcast
11:53 PM 32.0 °F 23.6 °F 28.9 °F 88% 29.53 in 10.0 mi West 10.4 mph - N/A   Overcast